ATLAS 5 CENTAUR DEB, 44896

Orbit data source: Space-Track

ATLAS 5 CENTAUR DEB, 44896 is space debris in HEO originally from a launch on Wed, 17 Oct 2018 UTC launched from the Air Force Eastern Test Range (AFETR). Debris objects in space refer to the collection of defunct objects orbiting the Earth. Examples of debris include non-operational satellites, rocket bodies, and fragments generated from explosions, collisions, or faulty payload assembly.

Loading next visibility...
Identifier
44896, 2018-079BK
Orbit
HEO
Country
Flag of USUS
Related business
Flag of USUnited Launch Alliance/Lockheed Martin (US)
Manufacturer
ULA Decatur
Mission
Spacecraft
Bus & Motor
Unknown
Mass
Unknown
Launch date (UTC)
2018-10-17 (8 years ago)
Launch vehicle
Unknown
Launch site
Air Force Eastern Test Range (AFETR)
Object type
Payload
Rocket body
Debris
Shape & HBR
Unknown shape, 1.1 m
Radar Cross Section
Medium (>0.1 m² and <1 m²)

Expand to show TLE details & history
Last TLE update: 1 week ago

TLE from 1 week ago
0 ATLAS 5 CENTAUR DEB
1 44896U 18079BK  26240.90150107 -.00000082  00000-0  00000-0 0  9994
2 44896  13.4465 337.0674 4626316  76.1624 329.6406  2.00757123 49167
Epoch: 2026-08-28T21:38Z
TLE epoch observation values (Epoch: 2026-08-28T21:38:09.692Z)
Latitude
0.00009°
Longitude
35.45112°
Altitude
12,420.333 km
Speed
5.234 km/s
True Right ascension
22h 28m 26s
True Declination
0° 00' 00"
Sunlit
Object was in full shadow at epoch
Visualization orbit readout
Latitude
Unknown
Longitude
Unknown
Altitude
Unknown
Speed
Unknown
Apparent Right ascension
Unknown
Apparent Declination
Unknown
Sunlit
N/A
Visualization observer readout
Local Sidereal Time
12:52:03
Azimuth
Unknown
Elevation
Unknown
Doppler factor
Unknown
Orbital elements
Apogee altitude
32,448.122 km
Perigee altitude
7,886.566 km
Semi-major axis
26,545.481 km
Eccentricity
0.46263
Inclination
13.4465°
RAAN
337.0674°
Arg. of periapsis
76.1624°
True anomaly
283.67279°
Mean anomaly
329.6406°
Eccentric anomaly
309.05774°
Mean motion
0.50183 °/min
Orbital period
717.37 mins
BSTAR
0
Loading maneuver chart data...
Computing Atmospheric mass density...

Documentation

Showing up to 5 results
|